Weather History for Billings, MT

Change the Weather History Date:

Thursday, March 8, 2012

  Actual Average Record
Temperature  
Mean Temperature 38 °F 36 °F  
Max Temperature 52 °F 46 °F 66 °F (2004)
Min Temperature 23 °F 25 °F -16 °F (1951)
Degree Days  
Heating Degree Days 27 29  
Month to date heating degree days 209 243  
Since 1 July heating degree days 4717 5208  
Cooling Degree Days 0 0  
Month to date cooling degree days 0 0  
Year to date cooling degree days 0 0  
Moisture  
Dew Point 15 °F    
Average Humidity 42    
Maximum Humidity 60    
Minimum Humidity 24    
Precipitation  
Precipitation 0.00 in 0.02 in 0.44 in (1987)
Month to date precipitation 0.10 0.20  
Year to date precipitation 0.95 1.16  
Snow  
Snow 0.00 in 0.30 in 7.70 in (2003)
Month to date snowfall 1.2 2.4  
Since 1 July snowfall 30.0 36.9  
Snow Depth 0.00 in    
Sea Level Pressure  
Sea Level Pressure 30.38 in    
Wind  
Wind Speed 17 mph (SW)    
Max Wind Speed 25 mph    
Max Gust Speed 35 mph    
Visibility 10 miles    
Events      
T = Trace of Precipitation, MM = Missing Value Source: NWS Daily Summary

Daily Weather History Graph

Daily Weather History Graph

Search for Another Location

Airport:

Trip Planner

Search our weather history database for the weather conditions in past years. The results will help you decide how hot, cold, wet, or windy it might be!

Date:

Astronomy

Mar. 08, 2012 Rise Set
Actual Time 6:38 AM MST 6:11 PM MST
Civil Twilight 6:09 AM MST 6:41 PM MST
Nautical Twilight 5:34 AM MST 7:15 PM MST
Astronomical Twilight 5:00 AM MST 7:50 PM MST
Moon 7:08 PM MST (3/8) 6:21 AM MST (3/8)
Length of Visible Light 12h 31m
Length of Day
11h 32m
Full, 100% of the Moon is Illuminated
Mar 8
Full
Mar 14
Last Quarter
Mar 22
New
Mar 30
First Quarter
Apr 6
Full

Hourly Weather History & Observations

Time (MST) Temp. Windchill Dew Point Humidity Pressure Visibility Wind Dir Wind Speed Gust Speed Precip Events Conditions
12:53 AM 27.0 °F 18.0 °F 12.9 °F 56% 30.36 in 10.0 mi WSW 9.2 mph - N/A   Clear
1:53 AM 27.0 °F 13.5 °F 12.9 °F 56% 30.37 in 10.0 mi WSW 19.6 mph - N/A   Clear
2:53 AM 27.0 °F 16.7 °F 12.9 °F 56% 30.37 in 10.0 mi SW 11.5 mph - N/A   Clear
3:53 AM 27.0 °F 16.1 °F 12.9 °F 56% 30.38 in 10.0 mi SW 12.7 mph - N/A   Clear
4:53 AM 24.8 °F 12.4 °F 12.2 °F 59% 30.30 in 10.0 mi WSW 15.0 mph - N/A   Clear
5:53 AM 25.0 °F 12.6 °F 12.9 °F 60% 30.42 in 10.0 mi WSW 15.0 mph - N/A   Clear
6:53 AM 25.0 °F 12.2 °F 12.0 °F 58% 30.43 in 10.0 mi SW 16.1 mph - N/A   Clear
7:53 AM 30.0 °F 20.0 °F 14.0 °F 51% 30.42 in 10.0 mi WSW 12.7 mph - N/A   Clear
8:53 AM 35.1 °F 25.5 °F 15.1 °F 44% 30.43 in 10.0 mi WSW 15.0 mph - N/A   Clear
9:53 AM 39.0 °F 29.6 °F 14.0 °F 36% 30.43 in 10.0 mi SW 18.4 mph - N/A   Clear
10:53 AM 43.0 °F 34.2 °F 14.0 °F 31% 30.42 in 10.0 mi SW 20.7 mph 27.6 mph N/A   Clear
11:53 AM 46.0 °F 39.3 °F 14.0 °F 28% 30.40 in 10.0 mi SW 16.1 mph 29.9 mph N/A   Clear
12:53 PM 48.9 °F - 15.1 °F 26% 30.37 in 10.0 mi SW 18.4 mph 29.9 mph N/A   Clear
1:53 PM 50.0 °F - 16.0 °F 26% 30.36 in 10.0 mi SW 18.4 mph 25.3 mph N/A   Partly Cloudy
2:53 PM 52.0 °F - 17.1 °F 25% 30.35 in 10.0 mi SW 19.6 mph 25.3 mph N/A   Partly Cloudy
3:53 PM 52.0 °F - 16.0 °F 24% 30.34 in 10.0 mi SW 17.3 mph 24.2 mph N/A   Clear
4:53 PM 50.0 °F - 16.0 °F 26% 30.35 in 10.0 mi WSW 18.4 mph 25.3 mph N/A   Scattered Clouds
5:53 PM 46.9 °F - 16.0 °F 29% 30.36 in 10.0 mi WSW 18.4 mph - N/A   Scattered Clouds
6:53 PM 46.0 °F 39.3 °F 16.0 °F 30% 30.37 in 10.0 mi WSW 16.1 mph - N/A   Scattered Clouds
7:53 PM 44.1 °F 36.5 °F 15.1 °F 31% 30.38 in 10.0 mi WSW 17.3 mph 25.3 mph N/A   Clear
8:53 PM 43.0 °F 34.2 °F 15.1 °F 32% 30.37 in 10.0 mi WSW 20.7 mph - N/A   Clear
9:53 PM 42.1 °F 33.6 °F 15.1 °F 34% 30.36 in 10.0 mi WSW 18.4 mph - N/A   Clear
10:53 PM 42.1 °F 33.6 °F 16.0 °F 35% 30.34 in 10.0 mi SW 18.4 mph - N/A   Clear
11:53 PM 42.1 °F 32.6 °F 16.0 °F 35% 30.33 in 10.0 mi WSW 23.0 mph - N/A   Clear